EW9274 Weather Reports


Display with metric or nautical units.
time (UTC)temp
F
wind
direction
speed
MPH
gust
MPH
rain 1hr
in
rain 24hr
in
rain mn
in
humidity
%
barometer
mb
20260903103006 74 65 0.0 2.0 0.00 0.00 0.00 90 1013.3
20260903102510 74 65 0.0 2.0 0.00 0.00 0.00 90 1013.4
20260903102014 74 55 0.0 2.0 0.00 0.00 0.00 91 1013.4
20260903101521 74 54 0.0 2.0 0.00 0.00 0.00 91 1013.4
20260903101015 74 54 0.0 2.0 0.00 0.00 0.00 91 1013.3
20260903100515 74 51 0.0 2.0 0.00 0.00 0.00 91 1013.4
20260903100021 74 39 0.0 2.0 0.00 0.00 0.00 91 1013.5
20260903095509 74 58 1.0 2.0 0.00 0.00 0.00 91 1013.5
20260903095014 74 53 1.0 2.0 0.00 0.00 0.00 91 1013.5
20260903094525 74 54 1.0 2.0 0.00 0.00 0.00 91 1013.5
20260903094012 74 73 0.0 2.0 0.00 0.00 0.00 91 1013.7
20260903093515 74 79 0.0 2.0 0.00 0.00 0.00 91 1013.7
20260903093017 74 105 0.0 2.0 0.00 0.00 0.00 91 1013.6
20260903092511 74 58 0.0 2.0 0.00 0.00 0.00 91 1013.6
20260903092015 74 56 2.0 3.0 0.00 0.00 0.00 91 1013.5
20260903091516 74 62 2.0 3.0 0.00 0.00 0.00 91 1013.5
20260903091012 74 51 1.0 4.0 0.00 0.00 0.00 91 1013.5
20260903090517 74 46 3.0 4.0 0.00 0.00 0.00 91 1013.5
20260903090019 75 69 2.0 3.0 0.00 0.00 0.00 91 1013.5
20260903085514 75 69 2.0 3.0 0.00 0.00 0.00 91 1013.4
20260903085019 75 54 0.0 2.0 0.00 0.00 0.00 91 1013.4
20260903084519 75 64 1.0 2.0 0.00 0.00 0.00 91 1013.4
20260903084016 75 68 1.0 2.0 0.00 0.00 0.00 91 1013.4
20260903083507 76 72 0.0 2.0 0.00 0.00 0.00 91 1013.4
20260903083034 76 71 0.0 2.0 0.00 0.00 0.00 91 1013.5
20260903082517 76 59 0.0 2.0 0.00 0.00 0.00 91 1013.5
20260903082003 76 57 0.0 1.0 0.00 0.00 0.00 91 1013.4
20260903081526 76 57 0.0 0.0 0.00 0.00 0.00 91 1013.4
20260903081016 76 58 0.0 2.0 0.00 0.00 0.00 91 1013.4
20260903080505 76 57 0.0 2.0 0.00 0.00 0.00 91 1013.4
20260903080025 76 57 0.0 2.0 0.00 0.00 0.00 91 1013.4
20260903075518 76 76 0.0 2.0 0.00 0.00 0.00 91 1013.4
20260903075009 76 44 0.0 2.0 0.00 0.00 0.00 91 1013.5
20260903074526 76 53 0.0 2.0 0.00 0.00 0.00 91 1013.5
20260903074017 76 53 0.0 1.0 0.00 0.00 0.00 90 1013.6
20260903073507 76 55 0.0 2.0 0.00 0.00 0.00 91 1013.5
20260903073035 76 56 0.0 2.0 0.00 0.00 0.00 91 1013.5
20260903072515 76 79 0.0 2.0 0.00 0.00 0.00 91 1013.5
20260903072008 76 103 0.0 0.0 0.00 0.00 0.00 91 1013.5
20260903071533 76 183 0.0 2.0 0.00 0.00 0.00 90 1013.5
20260903071020 76 193 0.0 2.0 0.00 0.00 0.00 90 1013.6
20260903070513 76 223 0.0 0.0 0.00 0.00 0.00 91 1013.5
20260903070030 76 223 0.0 0.0 0.00 0.00 0.00 91 1013.4
20260903065516 76 238 0.0 2.0 0.00 0.00 0.00 91 1013.5
20260903065010 76 245 0.0 2.0 0.00 0.00 0.00 91 1013.6
20260903064531 76 238 0.0 2.0 0.00 0.00 0.00 91 1013.6
20260903064016 76 238 0.0 2.0 0.00 0.00 0.00 91 1013.6
20260903063513 76 225 0.0 2.0 0.00 0.00 0.00 91 1013.6
20260903063031 76 246 0.0 2.0 0.00 0.00 0.00 91 1013.7
20260903062516 76 236 0.0 1.0 0.00 0.00 0.00 90 1013.7
20260903062011 76 224 0.0 2.0 0.00 0.00 0.00 90 1013.7
20260903061531 76 239 0.0 2.0 0.00 0.00 0.00 90 1013.7
20260903061024 76 197 0.0 0.0 0.00 0.00 0.00 90 1013.7
20260903060511 76 200 0.0 0.0 0.00 0.00 0.00 90 1013.7
20260903060031 76 200 0.0 0.0 0.00 0.00 0.00 91 1013.8
20260903055517 76 205 0.0 0.0 0.00 0.00 0.00 91 1013.8
20260903055017 76 185 0.0 0.0 0.00 0.00 0.00 91 1013.8
20260903054532 76 174 0.0 0.0 0.00 0.00 0.00 91 1013.7
20260903054012 76 192 0.0 2.0 0.00 0.00 0.00 91 1013.8
20260903053514 76 205 0.0 2.0 0.00 0.00 0.00 91 1013.8
20260903053037 76 225 0.0 2.0 0.00 0.00 0.00 91 1013.8
20260903052507 76 229 0.0 2.0 0.00 0.00 0.00 91 1013.7
20260903052020 76 221 0.0 2.0 0.00 0.00 0.00 91 1013.8
20260903051552 76 216 0.0 2.0 0.00 0.00 0.00 91 1013.9
20260903051009 77 219 1.0 2.0 0.00 0.00 0.00 91 1014.0
20260903050502 77 221 1.0 2.0 0.00 0.00 0.00 91 1013.9
20260903050014 77 226 0.0 2.0 0.00 0.00 0.00 91 1013.9
20260903045503 77 224 1.0 2.0 0.00 0.00 0.00 91 1013.9
20260903045003 77 227 0.0 2.0 0.00 0.00 0.00 91 1013.9
20260903044512 77 229 1.0 3.0 0.00 0.00 0.00 90 1013.8
20260903044002 77 237 1.0 3.0 0.00 0.00 0.00 90 1013.8
20260903043504 77 217 1.0 2.0 0.00 0.00 0.00 90 1013.7
20260903043035 77 224 1.0 2.0 0.00 0.00 0.00 90 1013.7
20260903042504 77 250 0.0 2.0 0.00 0.00 0.00 89 1013.6
20260903042003 77 220 0.0 2.0 0.00 0.00 0.00 89 1013.5
20260903041521 77 235 0.0 2.0 0.00 0.00 0.00 89 1013.5
20260903041002 77 225 0.0 2.0 0.00 0.00 0.00 89 1013.4
20260903040504 77 234 0.0 2.0 0.00 0.00 0.00 88 1013.4
20260903040021 78 235 0.0 2.0 0.00 0.00 0.00 88 1013.4
20260903035502 78 221 0.0 2.0 0.00 0.00 0.00 88 1013.4
20260903035005 78 234 0.0 2.0 0.00 0.00 0.00 88 1013.4
20260903034534 78 229 1.0 2.0 0.00 0.00 0.00 88 1013.3
20260903034002 78 240 0.0 2.0 0.00 0.00 0.00 87 1013.3
20260903033503 78 232 1.0 2.0 0.00 0.00 0.00 87 1013.4
20260903033024 78 228 1.0 2.0 0.00 0.00 0.00 87 1013.4
20260903032506 78 227 0.0 2.0 0.00 0.00 0.00 87 1013.4
20260903032009 78 212 1.0 2.0 0.00 0.00 0.00 86 1013.3
20260903031523 78 221 0.0 2.0 0.00 0.00 0.00 86 1013.3
20260903031002 79 229 0.0 2.0 0.00 0.00 0.00 86 1013.3
20260903030504 79 221 0.0 2.0 0.00 0.00 0.00 86 1013.2
20260903030004 79 230 0.0 2.0 0.00 0.00 0.00 86 1013.3
20260903025503 79 229 0.0 2.0 0.00 0.00 0.00 85 1013.3
20260903025007 79 235 0.0 2.0 0.00 0.00 0.00 85 1013.4
20260903024506 79 231 0.0 2.0 0.00 0.00 0.00 85 1013.4
20260903024004 79 230 0.0 2.0 0.00 0.00 0.00 85 1013.4
20260903023507 79 222 0.0 2.0 0.00 0.00 0.00 84 1013.4
20260903023004 80 217 0.0 2.0 0.00 0.00 0.00 84 1013.3
20260903022503 80 222 0.0 2.0 0.00 0.00 0.00 83 1013.3
20260903022008 80 231 0.0 2.0 0.00 0.00 0.00 83 1013.3
20260903021503 80 241 0.0 2.0 0.00 0.00 0.00 84 1013.3
20260903021003 80 238 0.0 2.0 0.00 0.00 0.00 83 1013.3
20260903020510 80 252 0.0 2.0 0.00 0.00 0.00 82 1013.2
20260903020011 81 219 0.0 2.0 0.00 0.00 0.00 81 1013.2
20260903015505 81 269 0.0 2.0 0.00 0.00 0.00 81 1013.1
20260903015009 81 332 0.0 0.0 0.00 0.00 0.00 81 1013.1
20260903014503 81 333 0.0 0.0 0.00 0.00 0.00 80 1013.1
20260903014007 82 333 0.0 2.0 0.00 0.00 0.00 79 1013.1
20260903013511 82 333 0.0 2.0 0.00 0.00 0.00 78 1013.0
20260903013009 82 338 0.0 2.0 0.00 0.00 0.00 78 1013.1
20260903012506 82 339 0.0 2.0 0.00 0.00 0.00 78 1012.9
20260903012012 82 350 1.0 2.0 0.00 0.00 0.00 78 1012.8
20260903011513 82 327 1.0 2.0 0.00 0.00 0.00 78 1012.8
20260903011007 82 360 1.0 2.0 0.00 0.00 0.00 78 1012.8
20260903010511 82 281 0.0 2.0 0.00 0.00 0.00 78 1012.7
20260903010007 82 250 0.0 2.0 0.00 0.00 0.00 77 1012.7
20260903005506 82 252 0.0 2.0 0.00 0.00 0.00 77 1012.6
20260903005013 83 258 1.0 2.0 0.00 0.00 0.00 77 1012.6
20260903004508 83 251 0.0 2.0 0.00 0.00 0.00 76 1012.6
20260903004007 83 249 0.0 2.0 0.00 0.00 0.00 75 1012.5
20260903003516 84 242 0.0 2.0 0.00 0.00 0.00 75 1012.4
20260903003010 84 232 0.0 2.0 0.00 0.00 0.00 74 1012.4
20260903002511 84 233 0.0 2.0 0.00 0.00 0.00 74 1012.5
20260903002017 84 223 0.0 2.0 0.00 0.00 0.00 73 1012.6
20260903001510 85 246 0.0 3.0 0.00 0.00 0.00 72 1012.5
20260903001009 85 246 0.0 3.0 0.00 0.00 0.00 72 1012.5
20260903000502 85 240 0.0 3.0 0.00 0.00 0.00 71 1012.6
20260903000009 85 249 2.0 3.0 0.00 0.00 0.00 70 1012.4
20260902235511 86 249 1.0 4.0 0.00 0.00 0.00 70 1012.6
20260902235006 86 219 0.0 5.0 0.00 0.00 0.00 69 1012.5
20260902234520 86 242 1.0 7.0 0.00 0.00 0.00 69 1012.7
20260902234013 87 250 4.0 7.0 0.00 0.00 0.00 68 1012.7
20260902233505 87 245 3.0 7.0 0.00 0.00 0.00 67 1012.7
20260902233012 87 198 2.0 8.0 0.00 0.00 0.00 67 1012.8
20260902232514 87 263 2.0 8.0 0.00 0.00 0.00 67 1012.7
20260902232003 87 263 2.0 6.0 0.00 0.00 0.00 66 1012.6
20260902231536 87 198 4.0 7.0 0.00 0.00 0.00 67 1012.7
20260902231013 87 255 3.0 7.0 0.00 0.00 0.00 67 1012.7
20260902230502 87 270 2.0 6.0 0.00 0.00 0.00 66 1012.7
20260902230016 87 226 3.0 10.0 0.00 0.00 0.00 66 1012.7
20260902225512 87 268 6.0 10.0 0.00 0.00 0.00 66 1012.8
20260902225006 87 270 3.0 7.0 0.00 0.00 0.00 66 1012.6
20260902224527 87 254 4.0 7.0 0.00 0.00 0.00 66 1012.6
20260902224019 87 248 3.0 8.0 0.00 0.00 0.00 65 1012.6
20260902223505 87 211 3.0 8.0 0.00 0.00 0.00 66 1012.7
20260902223025 87 253 4.0 12.0 0.00 0.00 0.00 65 1012.9
20260902222517 87 244 5.0 12.0 0.00 0.00 0.00 65 1012.7
20260902222006 87 248 5.0 9.0 0.00 0.00 0.00 65 1012.8
20260902221523 87 286 3.0 11.0 0.00 0.00 0.00 65 1012.7
20260902221020 88 260 4.0 12.0 0.00 0.00 0.00 64 1012.7
20260902220503 88 257 7.0 12.0 0.00 0.00 0.00 64 1012.9
20260902220023 88 261 5.0 9.0 0.00 0.00 0.00 63 1012.8
20260902215518 88 254 4.0 9.0 0.00 0.00 0.00 64 1012.8
20260902215016 88 238 5.0 10.0 0.00 0.00 0.00 62 1012.7
20260902214534 89 259 4.0 10.0 0.00 0.04 0.00 62 1012.8
20260902214017 89 259 4.0 10.0 0.00 0.05 0.00 62 1012.9
20260902213511 89 223 5.0 10.0 0.00 0.05 0.00 62 1012.8
20260902213030 88 208 4.0 10.0 0.00 0.05 0.00 63 1012.9
20260902212504 88 281 5.0 10.0 0.00 0.05 0.00 64 1013.0
20260902212008 88 264 4.0 9.0 0.00 0.05 0.00 63 1013.0
20260902211530 88 263 6.0 13.0 0.00 0.05 0.00 64 1012.8
20260902211005 89 169 4.0 13.0 0.00 0.05 0.00 62 1012.7
20260902210516 89 253 7.0 13.0 0.00 0.06 0.00 61 1012.8
20260902210031 89 160 6.0 12.0 0.00 0.06 0.00 60 1012.9
20260902205504 89 254 3.0 11.0 0.00 0.06 0.00 61 1013.0
20260902205009 89 170 5.0 12.0 0.00 0.06 0.00 61 1013.0
20260902204538 89 258 3.0 12.0 0.00 0.06 0.00 62 1012.9
20260902204006 89 229 5.0 12.0 0.00 0.06 0.00 62 1012.9
20260902203520 89 197 5.0 12.0 0.00 0.06 0.00 61 1012.9
20260902203033 91 271 5.0 9.0 0.00 0.06 0.00 61 1012.9
20260902202506 90 207 2.0 10.0 0.00 0.06 0.00 63 1012.7
20260902202012 90 217 5.0 10.0 0.00 0.06 0.00 61 1012.8
20260902201535 90 176 2.0 8.0 0.00 0.06 0.00 62 1012.9
20260902201007 89 263 2.0 8.0 0.00 0.06 0.00 63 1012.9
20260902200502 89 280 3.0 7.0 0.00 0.06 0.00 62 1012.9
20260902200008 89 211 1.0 7.0 0.00 0.06 0.00 62 1013.0
20260902195509 89 157 1.0 7.0 0.00 0.07 0.00 63 1013.0
20260902195002 89 227 3.0 10.0 0.00 0.07 0.00 63 1013.0
20260902194533 89 128 3.0 10.0 0.00 0.07 0.00 64 1013.1
20260902194009 89 244 5.0 11.0 0.00 0.07 0.00 63 1013.2
20260902193503 89 194 3.0 12.0 0.00 0.08 0.00 64 1013.3
20260902193037 89 250 4.0 11.0 0.00 0.08 0.00 63 1013.3
20260902192508 89 267 6.0 11.0 0.00 0.08 0.00 62 1013.2
20260902192003 89 193 2.0 8.0 0.00 0.08 0.00 62 1013.2
20260902191511 89 272 4.0 9.0 0.00 0.08 0.00 61 1013.3
20260902191011 90 227 5.0 14.0 0.00 0.08 0.00 59 1013.3
20260902190503 90 227 3.0 14.0 0.00 0.08 0.00 59 1013.2
20260902190019 90 246 1.0 8.0 0.00 0.08 0.00 62 1013.3
20260902185510 88 240 4.0 10.0 0.00 0.08 0.00 65 1013.4
20260902185004 89 238 3.0 10.0 0.00 0.08 0.00 64 1013.5
20260902184516 89 238 2.0 11.0 0.00 0.08 0.00 65 1013.4
20260902184000 88 234 6.0 10.0 0.00 0.08 0.00 64 1013.5
20260902183503 88 111 2.0 7.0 0.00 0.08 0.00 65 1013.5
20260902183014 88 259 2.0 5.0 0.00 0.08 0.00 66 1013.5
20260902182500 87 147 1.0 6.0 0.00 0.08 0.00 67 1013.5
20260902182005 87 116 2.0 6.0 0.00 0.08 0.00 65 1013.6
20260902181516 87 161 1.0 7.0 0.00 0.08 0.00 66 1013.7
20260902181012 87 259 2.0 7.0 0.00 0.08 0.00 65 1013.8
20260902180503 87 164 2.0 7.0 0.00 0.08 0.00 66 1013.8
20260902180020 87 165 2.0 7.0 0.00 0.08 0.00 65 1013.8
20260902175513 88 352 1.0 5.0 0.00 0.08 0.00 64 1013.9
20260902175004 86 227 1.0 5.0 0.00 0.08 0.00 68 1013.8
20260902174518 85 143 1.0 8.0 0.00 0.08 0.00 69 1014.0
20260902174003 85 295 4.0 8.0 0.00 0.08 0.00 67 1014.2
20260902173505 85 263 2.0 8.0 0.00 0.08 0.00 68 1014.3
20260902173020 86 250 3.0 8.0 0.00 0.08 0.00 66 1014.2
20260902172503 87 223 0.0 5.0 0.00 0.08 0.00 65 1014.0
20260902172008 86 266 1.0 7.0 0.00 0.08 0.00 66 1013.9
20260902171533 86 170 2.0 8.0 0.00 0.08 0.00 65 1014.1
20260902171007 88 200 2.0 8.0 0.00 0.08 0.00 62 1014.1
20260902170505 88 140 1.0 3.0 0.00 0.08 0.00 62 1014.1
20260902170035 85 286 0.0 7.0 0.00 0.08 0.00 63 1014.2
20260902165504 86 246 1.0 7.0 0.00 0.08 0.00 63 1014.3
20260902165010 85 258 2.0 5.0 0.00 0.08 0.00 64 1014.3
20260902164526 85 304 2.0 5.0 0.00 0.08 0.00 63 1014.2
20260902164005 85 211 1.0 7.0 0.00 0.08 0.00 64 1014.3
20260902163508 85 191 2.0 7.0 0.00 0.08 0.00 64 1014.4
20260902163028 85 256 3.0 7.0 0.00 0.08 0.00 63 1014.5
20260902162518 84 254 1.0 7.0 0.00 0.08 0.00 65 1014.5
20260902162010 84 252 1.0 3.0 0.00 0.08 0.00 63 1014.6
20260902161539 83 262 1.0 7.0 0.00 0.08 0.00 66 1014.6
20260902161005 84 244 1.0 7.0 0.00 0.08 0.00 64 1014.7
20260902160522 83 169 2.0 8.0 0.00 0.08 0.00 66 1014.3
20260902160035 83 302 0.0 8.0 0.00 0.08 0.00 66 1014.3
20260902155505 82 194 2.0 8.0 0.00 0.08 0.00 66 1014.0
20260902155012 82 138 2.0 9.0 0.00 0.08 0.00 67 1014.1
20260902154503 81 137 3.0 9.0 0.00 0.08 0.00 67 1014.2
20260902154017 82 175 3.0 9.0 0.00 0.08 0.00 65 1014.3
20260902153509 81 125 2.0 9.0 0.00 0.08 0.00 67 1014.4
20260902153006 81 146 3.0 8.0 0.00 0.08 0.00 67 1014.5
20260902152506 80 123 4.0 7.0 0.00 0.08 0.00 69 1014.6
20260902152009 80 82 2.0 7.0 0.00 0.08 0.00 70 1014.6
20260902151505 79 69 3.0 7.0 0.00 0.08 0.00 70 1014.7
20260902151006 80 76 3.0 6.0 0.00 0.08 0.00 69 1014.7
20260902150513 80 58 2.0 8.0 0.00 0.08 0.00 69 1014.8
20260902150008 80 80 4.0 8.0 0.00 0.08 0.00 68 1014.8
20260902145508 79 73 2.0 7.0 0.00 0.08 0.00 69 1014.8
20260902145011 79 123 4.0 7.0 0.00 0.08 0.00 71 1014.7
20260902144510 78 94 4.0 7.0 0.00 0.08 0.00 71 1014.7
20260902144007 78 135 3.0 7.0 0.00 0.08 0.00 71 1014.9
20260902143512 79 78 4.0 7.0 0.00 0.08 0.00 70 1015.0
20260902143011 79 123 1.0 6.0 0.00 0.08 0.00 71 1015.0
20260902142508 78 232 1.0 6.0 0.00 0.08 0.00 73 1014.9
20260902142016 78 146 2.0 5.0 0.00 0.08 0.00 74 1014.9
20260902141510 78 146 2.0 4.0 0.00 0.08 0.00 73 1015.0
20260902141009 77 126 1.0 6.0 0.00 0.08 0.00 74 1015.1
20260902140513 78 128 1.0 6.0 0.00 0.08 0.00 73 1015.1
20260902140011 78 144 2.0 5.0 0.00 0.08 0.00 73 1015.2
20260902135511 77 89 2.0 5.0 0.00 0.08 0.00 72 1015.1
20260902135015 77 156 1.0 4.0 0.00 0.08 0.00 73 1015.2
20260902134512 77 96 2.0 4.0 0.00 0.08 0.00 73 1015.3
20260902134010 77 83 0.0 9.0 0.00 0.08 0.00 73 1015.2
20260902133514 77 106 2.0 9.0 0.00 0.08 0.00 72 1015.0
20260902133014 77 100 3.0 9.0 0.00 0.08 0.00 71 1015.0
20260902132514 77 40 4.0 9.0 0.00 0.08 0.00 70 1015.1
20260902132018 78 54 3.0 9.0 0.00 0.08 0.00 70 1015.1
20260902131522 77 44 2.0 6.0 0.00 0.08 0.00 72 1015.2
20260902131015 76 87 1.0 7.0 0.00 0.08 0.00 74 1015.4
20260902130516 76 41 1.0 8.0 0.00 0.08 0.00 74 1015.5
20260902130018 75 129 4.0 8.0 0.00 0.08 0.00 75 1015.3
20260902125513 76 49 3.0 6.0 0.00 0.08 0.00 75 1015.5
20260902125004 75 46 3.0 6.0 0.00 0.08 0.00 75 1015.5
20260902124519 75 76 3.0 7.0 0.00 0.08 0.00 75 1015.5
20260902124012 75 40 5.0 7.0 0.00 0.08 0.00 76 1015.5
20260902123506 75 64 4.0 6.0 0.00 0.08 0.00 76 1015.5
20260902123024 75 44 4.0 6.0 0.00 0.08 0.00 77 1015.3
20260902122516 75 69 1.0 5.0 0.00 0.08 0.00 79 1015.6
20260902122005 75 68 3.0 5.0 0.00 0.08 0.00 79 1015.5
20260902121523 75 233 1.0 3.0 0.00 0.08 0.00 80 1015.6
20260902121015 75 42 1.0 5.0 0.00 0.08 0.00 81 1015.6
20260902120506 75 92 2.0 5.0 0.00 0.08 0.00 81 1015.4
20260902120024 75 15 1.0 9.0 0.00 0.08 0.00 82 1015.3
20260902115515 75 27 3.0 9.0 0.00 0.08 0.00 84 1015.2
20260902115007 75 52 3.0 8.0 0.00 0.08 0.00 86 1015.3
20260902114534 75 350 1.0 5.0 0.00 0.08 0.00 87 1015.0
20260902114017 74 320 2.0 6.0 0.00 0.08 0.00 89 1015.5
20260902113507 74 305 2.0 8.0 0.00 0.08 0.00 90 1015.1
20260902113027 74 336 2.0 8.0 0.00 0.08 0.00 91 1015.3
20260902112517 73 327 0.0 5.0 0.00 0.08 0.00 92 1014.9
20260902112008 73 328 3.0 5.0 0.00 0.08 0.00 92 1014.8
20260902111537 73 298 1.0 5.0 0.00 0.08 0.00 92 1014.7
20260902111018 73 244 1.0 2.0 0.00 0.08 0.00 92 1014.2
20260902110504 73 232 1.0 2.0 0.00 0.08 0.00 92 1014.1
20260902110011 73 238 1.0 2.0 0.00 0.08 0.00 92 1014.1
20260902105505 73 234 0.0 2.0 0.00 0.08 0.00 92 1014.2
20260902105003 73 204 0.0 2.0 0.00 0.08 0.00 92 1014.1
20260902104506 73 213 0.0 2.0 0.00 0.08 0.00 92 1014.1
20260902104004 73 212 0.0 2.0 0.00 0.08 0.00 92 1014.1
20260902103504 74 221 0.0 2.0 0.00 0.08 0.00 92 1014.2